Location: Brienzwiler
(46.7508°N, 8.1014°E)
Time: 07:40:20
(UTC+00:00)

Cosmos 1400 Rocket - Pass Details

Date: 05 July 2020
Orbit: 521 x 568 km, 81.2° (Epoch: 06 August)

Event Time Altitude Azimuth Distance (km) Brightness Sun altitude
Rises 21:08:54 0° 341° (NNW) 2,723 8.0 -13.4°
Reaches altitude 10° 21:11:12 10° 333° (NNW) 1,817 6.9 -13.6°
Maximum altitude 21:14:52 36° 266° (W) 871 4.1 -13.9°
Enters shadow 21:18:16 11° 201° (SSW) 1,707 5.0 -14.3°
